Weather in Kokino

Russia / Bryansk Oblast     53°09′17″N   34°07′22″E
temp.,
°C
wind,
m/s
gust,
m/s
humid.,
%
clouds,
%
prec.,
mm/h
press.,
hPa
HPBL,
m
12 may, wed
wed1200:00+10ese4893100 0.0 1023274
03:00+6ese410900 0.0 1024291
06:00+6ese27920 0.0 1025177
09:00+11e47711 0.0 1024630
12:00+15ene455396 0.0 10221572
15:00+13e5767100 0.3 1020645
18:00+11ene3581100 0.6 1017275
21:00+9e3890100 1.0 1016232
13 may, thu
thu1300:00+7e410965 0.0 1015266
03:00+7ese51195100 0.2 1014483
06:00+8ese5119543 0.6 1014576
09:00+11se697719 0.6 1014996
12:00+14sse7960100 0.2 10131821
15:00+14sse686392 0.6 10131665
18:00+12ssw466734 0.1 1013845
21:00+10sse3676100 0.1 1014157
14 may, fri
fri1400:00+7se34880 0.0 101559
03:00+7ese369399 0.0 1015103
06:00+8ese3891100 0.0 1015176
09:00+14ese6107599 0.0 1013422
12:00+19ese7969100 0.1 10121076
15:00+21sse696610 1.8 10101303
18:00+19s5978100 2.1 1008659
21:00+15s349133 3.2 100953
15 may, sat
sat1500:00+14s229294 1.8 100920
03:00+12sse229341 2.0 100812
06:00+13se2395100 1.4 100862
09:00+16s4685100 2.1 1008430
12:00+20ssw686716 0.7 10081441
15:00+18sw897021 2.4 10081369
18:00+16wsw69814 1.1 1009979
21:00+12sw37930 1.1 1011148
16 may, sun
sun1600:00+10wsw22910 0.0 101229
03:00+9sw22944 0.0 101319
06:00+9sw11920 0.0 101432
09:00+15w11770 0.0 1015427
12:00+19nne11618 0.0 10151099
15:00+20ne2356100 0.0 10141201
18:00+20e3564100 0.0 1014416
21:00+15e348239 0.0 101446